Regional Weather Roundup
Issued by NWS Upton, NY

Current Version | Previous Version | Graphics & Text | Print | Product List | Glossary Off
Versions: 1 2 3 4 5 6 7 8 9 10 11 12 13 14 15 16 17 18 19 20 21 22 23 24 25 26 27

000
ASUS41 KOKX 010004
RWROKX

REGIONAL WEATHER ROUNDUP
NATIONAL WEATHER SERVICE NEW YORK NY
800 PM EDT WED AUG 31 2016

NOTE: "FAIR" INDICATES FEW OR NO CLOUDS BELOW 12,000 FEET WITH NO
SIGNIFICANT WEATHER AND/OR OBSTRUCTIONS TO VISIBILITY.

NYZ071-072-176-178-NJZ106-104-010100-
NEW YORK CITY METRO AREA

CITY           SKY/WX    TMP DP  RH WIND       PRES   REMARKS
Central Park   CLOUDY    79  65  62 VRB3      29.91R
LaGuardia APRT CLOUDY    81  67  62 S13       29.88R
Kennedy INTL   CLOUDY    79  75  87 S16G22    29.89R
Newark/Liberty CLOUDY    81  67  62 SE9       29.87R
Bronx Bot Gard   N/A     79  66  65 SE6       29.90R
Wall St Helipt CLOUDY    81  70  69 S5        29.89R
Teterboro      CLOUDY    81  64  56 S8        29.86S
$$

NYZ177-179-078>081-010100-
LONG ISLAND NEW YORK

CITY           SKY/WX    TMP DP  RH WIND       PRES   REMARKS
Farmingdale    CLOUDY    78  70  76 SW9       29.90R
MacArthur/ISP  CLOUDY    77  71  82 S8        29.89S
Shirley        PTCLDY    76  70  82 SW6       29.91R
Riverhead      NOT AVBL
Westhampton    CLOUDY    75  69  81 SW5       29.91S
Southampton      N/A     75  72  88 SW3       29.86S
Bridgehampton  NOT AVBL
East Hampton   FAIR      74  70  88 CALM      29.89S
Montauk          N/A     75  71  87 SW5       29.91S
$$

NYZ052-065-067-010100-
HUDSON VALLEY

CITY           SKY/WX    TMP DP  RH WIND       PRES   REMARKS
White Plains   MOCLDY    77  69  76 S6        29.89S
Newburgh       MOCLDY    73  70  88 CALM      29.91R
Montgomery     CLOUDY    73  70  90 S3        29.89R
Poughkeepsie   CLOUDY    72  70  93 CALM      29.87S
Albany         CLOUDY    72  66  81 SW3       29.87R
$$

NJZ001-105-106-008-010-013-015-019>022-104-010100-
NEW JERSEY

CITY           SKY/WX    TMP DP  RH WIND       PRES   REMARKS
Newark/Liberty CLOUDY    81  67  62 SE9       29.87R
Teterboro      CLOUDY    81  64  56 S8        29.86S
Caldwell       CLOUDY    83  68  60 CALM      29.88R
Morristown     CLOUDY    79  70  73 CALM      29.88R
Somerville     PTCLDY    77  70  79 CALM      29.85S
Linden         FAIR      82  66  58 S7        29.89S
Sussex         LGT RAIN  74  71  91 CALM      29.90R
Abdover          N/A     74  69  85 CALM      29.90R
Trenton        CLOUDY    83  64  52 SE6       29.87R
Millville      CLEAR     77  68  73 VRB5      29.91R
Atlantic City  CLEAR     78  66  66 S8        29.90R
Wrightstown    CLOUDY    79  68  68 S7        29.87R
Toms River     PTCLDY    77  67  71 S3        29.90R
Belmar         MOCLDY    78  68  71 S6        29.90R
$$

PAZ047>061-062-071-010100-
EASTERN PENNSYLVANIA

CITY           SKY/WX    TMP DP  RH WIND       PRES   REMARKS
Philadelphia   CLOUDY    85  67  54 SW10      29.89R
Allentown      MOCLDY    79  66  64 CALM      29.89R
Scranton       CLOUDY    74  68  81 CALM      29.91S
$$

CTZ002-004>006-009-010-012-RIZ004-006-007-MAZ004-011-015-010100-
SOUTHERN NEW ENGLAND
 IN CT

CITY           SKY/WX    TMP DP  RH WIND       PRES   REMARKS
Bradley INTL   LGT RAIN  76  67  73 SW5       29.88S
Hartford       CLOUDY    80  68  66 CALM      29.87S
Danbury        CLOUDY    74  69  85 CALM      29.91R
Wtrbury/Oxford CLOUDY    73  66  78 CALM      29.93S
Bridgeport     CLOUDY    80  70  71 S9        29.88S
Meriden        CLOUDY    77  68  73 S3        29.88S
New Haven      CLOUDY    78  70  76 SW7       29.89R
Chester        FAIR      75  72  88 S5        29.90S
Groton         CLOUDY    75  71  87 SW3       29.89R
Wilimantic     CLOUDY    76  69  79 CALM      29.89S

 IN RI

CITY           SKY/WX    TMP DP  RH WIND       PRES   REMARKS
Providence     CLOUDY    76  69  79 SW9       29.89R
Block Island   MOCLDY    75  71  87 SW12      29.91R
Westerly       CLOUDY    76  69  79 SW8       29.90S
 IN MA

CITY           SKY/WX    TMP DP  RH WIND       PRES   REMARKS
Boston         CLOUDY    79  66  64 SW15      29.86S
Worcester      CLOUDY    71  64  78 SW6       29.90S
Westfield      CLOUDY    76  66  71 S8        29.87R
Provincetown   MOCLDY    73  70  90 SW13      29.88S
Nantucket      CLOUDY    71  68  90 SW13      29.91R
$$

ANZ330-335-338-340-345-350-353-355-010100-
COASTAL MARINE OBSERVATIONS


STATION/POSITION TIME  SKY/WX   TEMP    WIND        PRES    VSBY  WAVE
                                AIR SEA DIR/SP/G                  HT/PER
                 (UTC)          (F)     (DEG/KT/KT) (MB)    (MI)  (FT/S)
NY HARB ENTRANCE 2250            78 78  190/ 16/ 17 1011.2          4/12
20S FIRE ISLAND  2250            78 76  190/ 12/ 14 1011.5          4/12
GREAT SOUTH BAY  2315            77 80  220/ 10/ 12   N/A
23 SSW MONTAUK P 2250            77 78  210/ 14/ 16 1012.5          4/11
15 E BARNEGAT LI 2300               78                N/A           4/10
HUDSON CANYON    2250            78 79              1012.7          4/11
KINGS POINT      2300               78              1011.5
EXECUTION ROCKS  NOT AVBL
CENTRAL LI SOUND NOT AVBL
EASTERN LI SOUND NOT AVBL
ROBBINS REEF     2300                               1010.7
$$


>>>>>>>>>>>>>>>>>>>>>>>>>>>> KEY <<<<<<<<<<<<<<<<<<<<<<<<<<<
>                                                          <
>     SKY/WX - Sky Condition/Present Weather               <
>     TMP    - Temperature in Fahrenheit                   <
>     DP     - Dew Point in Fahrenheit                     <
>     RH     - Relative Humidity in Percent                <
>     WIND   - Direction (from) and Speed in MPH           <
>     PRES   - Mean Sea Level Pressure (inches of Hg)      <
>     WCI    - Wind Chill Index                            <
>     VSB    - VISIBILITY IN MILES                         <
>     HX     - HEAT INDEX                                  <
>     TC     - TEMPERATURE IN CELSIUS                      <
>     VRB    - VARIABLE WIND DIRECTION                     <
>                                                          <
>>>>>>>>>>>>>>>>>>>>>>>>>>>> KEY <<<<<<<<<<<<<<<<<<<<<<<<<<<




USA.gov is the U.S. government's official web portal to all federal, state and local government web resources and services.